Theta_e
308 309 310 311 310 314 318 319 317 318 320 320 321 320 317 320 323 319 319 325 334 340 341 342 339 336 343 346 347 348 347 351 351 348 350 351 349 347 347 347 346 344 342 339 336 334 332 331 331 333 334 336 338 340 340 338 339 338 338 337 337 337 336 336 334 333 332 329 326 326 326 324 323 325 326 327 328 327 328 327 328 327 322 321 321 320 317 321 330 332 329 320 314 315 315 316 316
308 309 310 310 311 316 318 318 320 321 320 317 317 319 319 320 321 320 320 327 338 342 343 342 340 341 342 342 344 346 350 350 349 349 351 350 349 348 348 346 345 343 342 339 337 334 332 332 332 333 335 337 339 340 340 339 339 339 338 338 338 338 337 336 335 334 333 331 328 328 329 329 329 329 330 331 331 331 331 330 330 330 324 322 321 320 319 319 324 329 332 326 316 315 315 315 315
308 310 310 310 313 317 317 318 321 321 319 316 315 319 319 320 320 322 319 325 340 343 343 342 342 343 343 349 349 349 352 349 349 350 350 350 349 349 348 346 343 343 342 339 338 335 332 334 334 334 337 339 340 341 340 339 338 338 338 338 338 337 337 337 336 335 333 332 331 328 330 331 331 331 331 330 331 331 332 332 330 328 323 321 320 320 320 318 319 326 334 330 317 315 315 314 315
310 312 313 313 315 316 319 322 326 323 320 319 317 320 322 322 322 321 317 328 344 342 342 343 346 344 345 355 351 350 351 349 349 350 351 350 349 349 348 344 343 342 341 339 337 335 333 335 334 335 338 339 340 341 340 339 338 338 338 338 338 338 338 337 336 335 333 333 333 330 329 331 331 331 330 329 328 328 329 330 327 324 321 319 319 319 319 319 319 322 329 325 316 316 316 314 315
313 315 315 315 316 316 319 322 325 322 319 321 321 323 325 321 319 318 316 328 339 338 341 344 348 345 344 349 346 349 351 349 350 350 351 350 350 350 347 343 342 342 340 337 335 334 333 335 334 334 336 338 341 342 341 339 338 338 338 338 338 338 338 337 337 335 333 332 334 332 330 331 331 330 329 328 327 325 324 324 322 320 320 320 318 317 316 318 320 320 320 319 316 317 317 316 317
314 316 316 316 317 316 319 319 320 321 318 319 322 324 324 319 317 317 315 323 335 336 340 343 346 345 344 346 347 350 350 349 349 349 350 350 351 350 347 344 343 341 339 335 333 333 335 336 334 332 334 338 341 342 341 340 339 339 339 339 338 338 338 337 336 335 332 331 334 333 332 332 331 330 328 328 327 325 323 322 321 322 322 321 319 316 314 314 318 320 317 316 317 317 318 319 319
314 316 315 316 316 315 321 323 322 322 319 318 320 322 321 318 317 316 316 320 332 340 342 344 342 346 347 346 349 350 349 348 349 350 351 350 351 350 347 344 343 341 339 336 333 333 336 336 333 333 333 336 340 341 342 341 340 340 339 339 339 339 338 337 336 334 331 331 333 334 334 333 330 329 328 328 328 326 324 324 324 325 324 321 319 317 314 313 315 320 318 315 316 317 319 320 321
315 316 314 317 318 316 319 321 320 321 319 317 316 317 318 318 316 316 318 315 326 340 344 344 341 349 349 346 349 349 350 349 348 351 352 351 351 349 347 344 343 339 337 336 333 334 337 337 334 333 334 334 336 339 341 342 342 341 340 339 339 338 337 336 335 332 330 332 334 334 333 331 329 328 329 329 329 328 327 327 327 325 324 322 321 319 317 314 312 317 319 316 316 317 319 321 323
315 315 314 317 319 317 319 318 317 317 317 316 315 315 316 316 316 315 317 316 325 340 343 344 341 349 351 348 349 349 350 349 349 351 351 351 350 347 345 343 341 338 336 335 334 336 336 335 333 332 332 333 334 334 337 340 340 340 339 338 338 337 336 334 332 330 332 334 334 332 330 329 329 329 330 330 330 329 329 329 327 324 322 322 321 321 320 316 312 314 318 317 315 318 320 323 325
316 315 314 317 319 317 319 319 319 317 316 316 315 315 315 315 315 314 315 315 326 342 343 342 342 347 349 348 347 347 348 349 349 351 350 349 348 346 344 341 340 338 336 334 335 337 336 335 333 330 332 332 333 333 332 334 336 336 336 337 337 335 333 331 330 331 333 334 332 330 329 329 330 331 331 332 331 330 332 331 325 322 321 321 320 320 320 318 314 312 317 317 314 317 322 326 329
316 314 314 318 319 317 318 320 320 319 316 315 314 315 316 315 314 313 315 318 329 343 342 343 345 346 347 345 345 346 348 349 350 350 349 348 346 345 343 340 339 337 336 334 335 335 334 334 332 330 332 333 334 334 332 332 332 332 334 335 333 331 329 329 330 332 334 332 330 329 329 330 331 332 333 332 333 333 333 330 324 322 321 320 320 320 320 320 317 313 315 317 313 316 323 328 331
317 315 317 321 320 318 319 319 318 319 317 315 316 316 315 315 314 313 320 329 337 341 341 343 346 345 346 346 345 346 348 349 349 349 348 347 345 344 342 340 338 337 335 335 334 332 330 330 332 332 334 335 334 333 331 330 329 329 329 329 329 328 329 330 331 332 332 331 329 329 329 331 333 332 332 332 332 332 331 328 324 323 322 320 319 319 319 320 319 315 314 315 314 315 322 329 331
317 316 318 320 319 319 319 317 317 320 320 317 316 315 316 314 316 317 321 331 336 338 338 340 343 344 346 346 345 346 347 348 348 349 348 346 344 343 341 340 337 336 335 334 332 331 329 327 330 333 334 335 331 328 327 326 325 325 326 326 327 328 328 329 330 330 330 329 329 328 329 331 332 332 331 330 330 330 328 326 324 323 321 321 321 321 321 320 320 317 314 314 315 315 319 327 331
317 315 317 318 316 318 317 316 317 318 318 316 315 314 316 314 319 323 327 334 335 337 339 341 341 344 346 345 346 346 345 346 348 348 347 346 344 342 341 338 336 336 334 332 329 329 329 328 329 331 332 332 327 324 324 323 324 325 325 325 325 327 327 328 328 328 328 328 329 328 328 329 331 331 330 330 329 327 326 325 325 324 321 322 323 323 322 321 320 319 315 314 315 316 317 324 329
316 314 317 318 316 316 315 315 315 314 316 316 315 314 314 316 321 324 329 337 340 341 342 343 341 343 348 347 346 346 345 346 348 348 346 345 343 341 340 337 335 335 333 332 330 329 330 329 329 330 329 329 326 325 325 326 326 326 325 324 324 324 325 327 327 327 328 328 329 329 329 329 330 330 330 330 328 326 326 325 325 324 322 322 324 324 323 321 320 319 318 315 315 316 317 320 324
316 314 316 315 316 316 314 314 315 314 317 317 315 314 315 317 319 323 328 334 342 342 340 341 339 339 344 346 345 346 346 345 346 346 344 342 341 340 338 336 335 334 332 331 331 329 329 330 329 329 329 327 327 328 328 329 329 328 327 327 326 325 326 327 327 327 327 327 328 328 328 330 330 330 331 330 328 326 326 326 326 325 323 323 324 324 323 321 319 318 318 317 316 315 317 319 321
316 315 316 315 316 316 315 317 315 315 317 317 314 313 315 318 318 324 332 337 342 340 338 340 339 337 341 344 345 346 346 344 346 344 341 341 339 338 336 335 335 334 333 332 330 330 330 330 329 330 330 328 328 329 330 330 331 331 329 329 328 327 328 327 328 328 327 327 327 327 327 328 329 330 331 331 328 326 326 327 327 326 324 324 324 324 324 322 319 318 318 318 317 316 316 318 320
315 317 318 316 316 315 317 318 314 314 316 315 314 313 315 318 315 319 331 338 340 340 340 341 341 341 342 344 346 347 345 344 345 342 341 341 339 337 335 334 335 334 334 333 331 331 330 330 331 330 330 330 329 330 331 331 332 331 330 330 329 329 329 329 329 328 328 328 328 328 328 328 328 329 330 330 329 327 327 328 328 328 326 325 324 323 324 323 319 319 318 317 317 316 316 317 319
314 317 318 316 316 315 314 315 314 314 315 315 313 314 314 316 315 315 326 331 338 346 343 340 342 342 342 344 346 346 344 344 343 341 343 343 340 337 335 335 334 332 333 333 332 331 331 330 330 329 329 329 329 331 331 331 332 331 332 331 330 330 330 330 329 329 329 330 330 330 330 330 330 330 329 330 330 329 328 328 329 329 328 327 326 324 323 323 321 319 319 318 317 316 315 316 319
314 315 316 316 316 314 313 313 314 314 315 313 313 314 313 314 315 315 321 325 336 349 345 341 341 341 342 344 345 344 343 343 343 343 343 342 341 337 335 335 333 331 330 330 330 331 330 330 330 329 328 329 329 330 331 331 332 332 332 331 331 331 331 330 330 329 330 330 330 330 330 331 330 330 330 331 330 329 329 329 329 330 329 329 327 326 324 323 322 319 320 320 319 319 316 315 318
313 313 316 316 313 313 314 314 315 315 314 314 313 314 314 315 315 315 319 321 327 335 338 340 340 340 342 344 345 343 343 343 343 344 342 340 340 338 335 334 332 331 330 329 330 331 330 330 330 329 329 329 329 331 331 331 331 332 332 331 331 331 330 330 330 329 330 330 330 330 330 330 330 331 331 331 330 330 330 329 329 330 330 330 329 328 325 324 323 321 320 320 322 323 317 315 317
313 312 313 313 312 313 315 314 314 315 314 314 313 314 315 315 315 314 316 318 319 322 328 332 334 340 342 344 343 342 343 344 344 345 342 339 339 337 335 334 333 331 330 331 332 332 331 331 330 329 329 329 329 331 331 331 331 331 331 331 330 331 330 330 330 330 330 330 330 330 330 330 331 331 331 331 330 330 330 330 330 330 330 330 330 329 326 325 325 323 322 322 325 323 315 317 319
314 313 311 311 312 312 314 314 314 314 313 313 313 314 314 314 316 315 315 320 321 320 326 331 334 339 341 343 342 342 344 344 345 344 341 338 337 336 335 334 334 333 332 332 332 332 332 331 329 329 329 328 329 330 331 331 331 331 331 331 331 330 330 330 330 330 330 330 330 330 330 330 330 329 329 329 330 330 329 330 330 331 331 330 330 329 328 326 326 326 324 325 327 322 316 321 324
313 313 312 312 312 311 313 314 313 313 313 314 314 314 313 315 314 314 323 329 326 323 329 334 338 340 341 342 341 342 344 344 344 342 340 337 336 335 335 335 335 334 334 334 333 332 331 330 329 328 329 329 330 331 331 331 331 331 331 331 331 331 331 331 332 332 331 331 330 330 330 330 329 327 328 329 329 329 329 330 330 330 330 330 330 330 329 328 327 327 327 328 328 322 321 325 327
312 312 311 312 312 312 314 313 313 312 313 314 314 313 312 316 313 320 335 337 333 332 334 337 340 340 340 340 341 342 343 342 341 341 339 337 336 335 335 336 335 336 335 334 334 332 331 329 328 328 328 328 330 331 333 332 332 332 332 331 331 332 332 332 333 333 333 332 331 331 331 330 329 328 329 329 328 328 328 330 330 330 330 330 330 330 329 328 328 328 328 330 329 325 325 327 327
311 311 310 311 311 313 313 312 312 312 313 313 312 312 313 315 312 327 342 341 338 338 338 340 340 340 340 340 342 342 342 342 340 340 339 337 336 335 336 337 336 336 336 336 335 333 332 330 329 329 329 330 331 334 335 334 334 334 333 333 333 333 334 334 334 333 333 332 331 332 331 330 330 330 330 330 329 327 328 329 329 329 330 330 331 331 330 329 328 329 329 330 330 328 327 328 328
312 311 311 311 311 312 311 311 312 311 313 312 314 314 314 315 310 329 345 343 340 340 340 340 340 340 340 341 341 341 342 341 340 340 339 338 337 335 336 337 336 336 336 336 336 336 335 333 332 331 332 333 334 336 335 335 335 335 335 334 334 334 334 334 333 333 332 330 331 332 332 331 331 332 331 331 329 328 328 329 329 329 329 330 331 331 330 330 329 329 329 330 330 329 328 328 329
313 312 312 313 311 310 311 311 311 312 313 312 315 313 313 313 310 330 346 344 340 340 340 340 340 340 340 340 340 341 341 340 340 339 338 338 337 336 336 336 336 336 337 338 338 337 336 336 335 335 335 336 337 337 336 335 334 333 334 334 334 334 333 333 332 332 331 330 331 331 332 332 332 331 331 331 330 329 329 330 329 329 329 330 331 330 331 331 330 330 330 330 329 329 329 329 329
313 312 313 315 313 313 312 311 312 312 314 313 314 313 315 313 312 333 347 344 343 340 341 341 339 340 340 340 339 339 340 339 339 339 339 337 336 337 337 338 338 337 338 337 337 338 337 336 337 337 338 338 338 337 335 333 332 331 332 331 332 333 333 333 332 332 332 331 331 331 331 332 331 330 329 330 330 330 330 329 329 330 330 330 331 331 331 331 330 331 331 330 329 329 329 330 329
313 312 313 315 316 317 313 311 313 312 313 315 314 313 316 313 318 339 349 344 344 342 341 342 340 340 339 339 339 338 339 338 338 338 338 338 337 338 337 338 338 335 335 332 333 336 335 334 336 338 339 339 338 336 334 332 331 330 330 330 331 332 332 332 331 331 331 330 330 330 330 331 330 329 329 329 330 330 330 330 330 330 331 330 331 331 331 330 330 330 330 329 329 329 329 330 330
314 313 316 315 313 317 315 311 313 312 313 314 314 314 313 316 327 343 348 344 344 343 343 342 341 341 339 339 339 338 338 337 338 338 337 337 339 339 337 338 337 334 332 330 329 330 330 329 334 338 338 338 337 335 333 331 330 329 329 329 329 330 330 329 329 329 328 328 329 329 328 329 330 329 329 329 330 330 330 330 329 330 331 330 330 330 330 330 330 329 329 328 328 329 329 329 330
316 313 320 320 312 315 317 312 313 313 313 313 313 314 313 319 335 344 346 345 345 343 344 343 342 342 340 340 339 338 338 337 338 337 336 337 337 337 336 339 338 335 332 329 327 328 329 330 334 337 337 337 336 334 332 331 330 329 328 328 328 328 327 327 328 327 327 327 329 329 327 327 329 329 329 329 330 330 330 330 330 330 330 330 330 330 330 330 330 329 328 327 327 328 328 329 329
324 316 318 320 315 315 316 314 313 312 312 313 312 316 315 316 329 340 345 345 344 343 344 343 342 342 341 340 340 340 339 338 338 337 336 337 337 335 334 336 336 334 330 328 328 328 331 333 335 336 336 335 334 333 332 330 328 327 326 327 326 325 326 326 328 327 327 328 329 328 328 328 329 329 329 329 329 330 330 329 329 330 330 330 330 330 329 329 329 329 328 327 326 327 328 329 329
327 324 321 321 319 315 316 317 314 311 312 313 312 315 317 316 322 335 343 343 342 343 343 343 342 341 341 340 340 341 340 339 338 337 337 337 338 335 330 330 331 331 328 327 328 329 333 333 331 334 334 334 334 332 330 328 326 326 326 326 324 323 324 326 327 327 327 328 328 328 328 328 328 328 328 328 329 329 329 328 329 330 330 330 330 330 329 329 329 328 328 328 327 326 327 328 328
320 322 323 324 321 316 316 318 316 314 312 312 313 313 314 321 327 333 338 340 340 341 342 342 341 340 340 339 340 341 341 340 338 337 337 337 339 334 327 326 329 330 325 325 329 330 329 324 323 331 332 332 332 330 328 327 326 326 326 325 324 323 322 324 326 326 326 326 325 324 325 327 327 327 327 328 328 328 328 328 327 328 328 329 330 330 330 329 329 328 328 328 328 327 327 328 328
315 316 320 322 320 316 317 318 317 315 313 313 314 313 316 325 331 330 332 335 336 338 339 339 339 339 339 339 340 341 340 340 338 336 336 338 338 331 325 324 327 326 320 321 327 325 320 319 325 330 330 330 330 327 327 326 326 326 326 325 324 324 323 323 325 325 324 323 322 321 323 326 326 326 326 326 327 327 327 326 326 326 327 327 328 329 329 329 328 328 329 328 328 328 328 329 329
315 317 320 320 317 317 316 317 318 318 318 316 316 318 322 329 332 328 327 331 333 335 336 337 338 337 338 338 339 340 339 338 338 337 336 336 335 330 325 326 325 322 318 319 323 324 323 326 328 329 328 329 328 326 325 324 324 324 324 324 324 324 323 323 323 323 322 322 322 321 322 324 325 325 325 325 326 326 325 325 324 323 325 326 327 327 327 327 327 328 328 328 328 329 329 329 329
317 319 318 317 319 318 316 319 320 321 322 319 319 321 320 322 327 326 327 331 333 333 334 335 335 336 336 337 337 337 337 337 337 337 336 334 333 329 325 327 326 321 319 319 319 325 330 328 327 327 327 328 327 325 323 321 322 322 322 322 322 321 322 322 322 321 322 323 322 319 319 318 320 322 323 323 322 321 323 323 321 321 322 324 325 325 326 326 327 328 328 328 329 329 329 329 329
319 320 319 317 319 318 320 327 326 325 327 322 321 321 320 325 327 325 327 330 331 333 335 336 335 336 335 335 337 336 336 336 336 337 336 334 333 328 325 326 325 321 320 321 322 325 327 325 327 329 327 328 327 325 322 320 321 322 322 320 319 319 319 322 323 322 322 321 320 318 315 313 315 319 320 319 317 317 319 319 318 319 321 322 323 324 323 323 325 326 327 327 328 328 328 328 328
321 319 317 318 320 318 320 328 329 327 325 322 325 328 329 332 326 321 323 325 328 331 334 335 335 336 336 336 338 338 337 335 337 338 336 334 332 328 326 325 324 323 323 328 330 327 324 325 329 329 329 328 327 324 322 322 323 323 321 320 320 320 320 322 323 323 322 321 321 318 314 312 314 317 317 316 315 317 318 318 318 320 321 321 322 322 322 322 323 324 325 326 326 327 327 327 328
328 325 319 320 322 318 318 323 330 332 326 324 331 332 329 330 325 321 322 323 327 330 331 332 332 333 333 334 336 338 338 337 337 338 335 333 331 328 327 326 325 324 325 330 330 325 325 329 331 330 329 326 323 323 324 325 324 320 318 319 321 322 322 323 323 322 321 321 320 315 312 314 315 316 316 317 318 319 319 320 321 321 321 321 321 322 322 323 323 323 324 325 326 327 327 327 327
327 330 327 327 326 322 322 329 334 333 325 320 324 324 325 330 328 322 322 323 326 329 329 330 329 330 330 331 334 335 337 336 336 336 334 332 331 329 328 327 327 327 328 330 326 325 329 332 331 329 326 321 319 323 327 325 320 315 314 316 318 320 320 321 320 319 317 317 314 311 312 316 317 318 318 320 320 320 320 320 320 321 321 321 321 321 321 322 323 324 324 325 326 326 326 326 326
319 325 328 330 331 327 325 331 332 326 322 320 324 326 326 331 329 321 321 324 327 329 330 329 327 329 329 329 332 333 334 333 333 334 333 333 332 332 331 330 330 329 328 326 326 330 333 333 332 327 320 316 317 322 324 320 314 313 314 314 315 316 316 316 315 313 312 311 310 310 314 318 319 320 319 319 319 319 319 319 319 319 320 320 320 321 320 318 321 324 324 325 325 325 325 325 325
319 323 327 327 328 327 327 330 327 323 323 324 331 329 321 327 329 321 320 324 327 330 330 328 327 328 328 328 329 332 333 332 331 332 332 332 332 332 333 332 330 327 327 328 331 333 332 333 333 324 315 313 314 318 318 315 314 314 314 315 317 316 315 312 309 308 308 308 308 310 313 317 319 320 320 319 318 318 319 317 316 316 317 318 317 316 315 314 318 323 323 323 325 324 324 324 324
324 328 326 324 325 328 334 332 326 326 322 321 332 327 317 328 334 324 320 323 325 328 330 327 326 327 328 328 329 329 331 332 331 331 331 332 332 332 331 330 328 328 330 333 332 328 325 328 326 317 312 310 312 315 316 316 316 315 315 317 317 317 315 310 307 307 307 307 307 307 309 312 313 314 315 315 315 317 317 314 313 314 314 313 310 308 308 309 315 320 318 319 321 320 322 324 323
322 325 322 323 326 329 334 331 328 331 325 323 331 325 316 329 339 328 321 322 322 324 328 324 321 325 328 328 327 328 330 331 331 332 332 331 331 329 329 329 329 332 334 334 331 326 320 318 316 311 310 312 314 318 319 319 319 318 317 317 317 316 313 309 307 307 307 306 307 306 307 307 307 308 308 309 312 314 313 310 310 311 310 308 306 305 305 307 310 312 310 311 314 312 316 320 320
318 322 321 321 327 330 334 334 329 327 326 327 331 327 320 326 334 330 321 319 319 320 326 326 320 323 328 328 327 327 328 330 331 331 331 331 330 329 330 331 332 332 331 331 331 326 318 313 311 311 312 315 318 321 321 321 321 320 319 318 317 314 309 308 308 308 307 307 306 306 306 306 306 306 306 308 310 310 309 307 307 307 307 306 306 306 306 306 306 307 306 308 308 307 309 311 311
318 325 324 319 323 327 332 332 326 325 328 330 332 327 321 323 329 326 321 319 318 317 323 330 326 324 327 328 327 327 328 329 330 330 330 330 331 332 333 334 333 330 328 329 330 327 320 314 311 311 313 318 323 323 324 323 322 322 321 319 317 313 309 308 308 308 308 307 306 306 306 306 306 307 306 307 308 307 306 306 306 307 306 306 307 306 306 307 306 306 306 306 307 306 306 306 308
319 324 327 322 321 322 327 329 324 326 327 325 328 325 319 326 327 321 319 319 318 318 319 324 325 324 327 328 327 328 328 329 329 330 331 331 333 334 335 335 334 332 331 330 331 331 326 321 316 313 316 322 323 322 322 323 323 323 322 320 318 313 309 308 308 308 307 306 306 306 306 306 306 306 306 306 307 306 306 307 307 307 307 306 307 307 306 307 306 306 306 306 306 306 306 306 307
316 320 323 322 322 322 324 326 320 322 324 321 323 322 319 328 327 320 321 320 320 321 320 321 322 324 327 327 327 328 329 330 331 332 332 332 334 335 335 336 334 333 333 332 333 333 331 329 324 319 320 321 317 318 321 323 324 323 322 322 319 312 308 308 309 308 308 307 306 306 306 306 306 306 306 306 306 306 306 307 307 306 306 306 306 306 306 306 306 306 306 306 306 305 305 305 305
316 318 318 318 326 325 323 325 322 321 322 320 320 319 322 327 324 321 321 319 322 325 324 325 324 324 327 327 327 329 330 330 330 332 334 334 335 335 335 335 333 332 333 334 334 334 333 333 328 323 324 321 316 319 323 323 324 323 322 322 318 312 308 308 308 308 308 307 306 307 306 306 306 306 306 306 306 306 306 306 307 306 306 306 306 306 306 306 306 306 305 305 305 305 305 304 304
315 314 315 315 323 327 321 319 324 326 322 321 319 318 323 326 321 319 320 321 324 325 324 326 326 325 326 326 327 328 329 330 329 331 334 333 333 335 335 333 331 331 332 333 334 334 334 334 330 326 326 323 321 323 324 324 324 323 322 320 315 311 309 308 308 308 307 307 307 307 307 307 307 307 307 307 307 307 307 307 307 307 307 307 307 307 307 307 307 307 306 306 306 305 305 304 304
315 312 314 316 316 324 322 315 319 324 322 322 320 317 321 322 320 320 323 325 325 325 326 325 324 326 325 324 325 326 326 327 327 328 329 330 331 333 335 334 331 330 331 333 333 335 335 334 333 330 327 324 323 323 322 322 323 324 320 316 313 313 312 308 308 308 308 308 307 307 307 307 307 307 307 307 307 307 307 307 308 308 308 308 308 308 308 308 308 307 307 307 307 306 306 306 305
316 313 315 314 312 320 326 322 321 320 320 323 320 317 320 322 324 323 323 326 325 325 326 324 324 325 323 323 324 325 325 324 323 324 326 328 329 330 332 332 331 330 331 332 333 335 334 333 333 331 327 323 322 322 320 319 323 322 316 313 315 317 316 313 310 308 308 308 307 307 308 307 307 308 308 307 308 308 307 308 308 308 308 308 308 308 308 308 308 308 308 308 308 307 307 307 306
312 313 314 313 315 322 321 319 323 318 318 322 318 316 318 321 327 325 322 326 326 325 327 325 325 324 322 322 323 324 325 324 323 324 326 327 328 328 328 328 328 329 330 331 332 334 334 333 332 332 329 326 324 324 321 319 322 320 314 314 317 317 319 319 315 309 307 308 309 309 310 311 311 310 310 309 309 308 308 308 308 308 308 309 309 309 309 309 308 308 308 308 308 308 308 308 307
312 314 316 317 323 326 318 317 321 319 318 320 319 319 321 326 329 325 323 326 325 327 329 326 324 323 322 323 323 323 324 324 324 325 326 326 326 327 328 328 328 328 328 328 329 330 330 330 330 329 329 328 326 327 323 320 320 318 314 315 317 318 321 321 318 313 310 310 310 312 312 314 315 314 313 312 312 311 311 310 310 310 310 310 310 311 311 310 310 310 309 309 309 308 308 308 308
313 315 318 318 318 317 315 315 317 320 323 323 321 319 324 330 329 323 323 325 324 326 328 325 322 322 322 323 323 324 324 324 325 325 325 325 325 326 327 328 329 328 328 327 327 328 328 328 328 327 327 327 326 327 325 322 321 318 316 316 318 320 321 321 319 316 314 313 313 315 315 316 317 316 316 315 314 314 314 314 314 314 314 313 313 312 312 312 312 312 313 313 312 311 310 309 309
312 313 314 317 319 317 317 316 314 320 325 324 323 320 324 330 327 323 324 324 323 323 323 322 322 322 323 323 323 323 323 324 324 324 324 324 325 326 326 327 327 327 328 328 327 328 327 327 327 327 326 326 326 326 325 324 322 319 316 318 320 321 321 320 319 318 317 316 316 317 318 318 318 317 317 317 317 316 317 317 317 317 317 317 316 316 315 315 315 315 315 315 316 316 314 313 311
Wind_Speed
4 5 6 6 7 9 5 3 2 2 2 0 3 1 3 5 3 3 6 3 2 4 2 2 6 11 11 8 9 9 8 3 2 2 2 7 24 28 22 24 28 30 30 28 27 25 24 21 19 18 20 22 24 26 26 25 24 23 22 21 20 19 18 17 16 15 16 17 16 16 16 16 16 15 15 14 13 14 13 12 13 12 11 11 10 10 9 10 12 11 10 11 11 11 12 12 13
5 6 7 8 9 8 4 3 2 2 3 2 4 3 3 4 2 5 8 2 4 3 11 18 19 19 16 13 9 7 9 7 1 5 9 16 29 27 21 23 28 31 30 28 27 26 24 20 18 18 20 23 25 27 27 26 24 23 22 21 20 19 18 17 16 15 15 16 17 16 15 16 16 15 14 13 13 14 13 12 12 11 9 9 8 8 8 9 11 12 11 11 12 12 12 13 13
7 7 8 8 8 6 4 3 2 1 3 2 5 3 3 4 5 7 8 4 11 13 18 20 17 13 8 7 6 4 4 6 6 13 16 20 29 26 21 24 29 30 29 28 27 27 25 20 18 18 20 23 25 26 27 26 25 24 23 21 20 19 17 16 16 15 15 16 17 16 16 16 16 15 13 13 13 13 13 12 11 9 8 7 6 7 7 8 9 11 12 11 12 13 13 13 14
9 8 8 9 8 4 4 2 2 4 2 4 4 5 4 5 7 5 5 2 15 16 11 9 8 6 5 6 5 6 5 5 9 17 19 21 27 25 22 27 30 29 28 28 28 28 26 23 20 20 20 22 24 26 27 26 25 24 22 21 19 18 17 16 15 15 15 15 16 17 16 16 16 14 12 12 11 11 11 11 9 8 8 8 7 6 6 6 8 10 11 12 13 13 14 14 15
8 8 8 7 5 2 2 2 2 4 4 4 2 5 5 6 7 6 7 4 12 13 5 3 4 5 10 8 4 5 6 7 11 18 22 23 26 26 26 30 31 30 29 27 26 25 26 24 22 21 20 21 24 26 26 25 24 23 21 20 18 18 17 16 15 15 15 15 15 16 17 16 16 14 12 10 9 9 10 9 8 8 8 9 8 7 6 5 7 8 10 12 13 14 15 16 16
8 9 7 4 3 2 2 1 2 3 6 4 2 6 6 7 7 9 11 9 7 12 7 3 7 9 10 9 9 8 5 7 14 20 26 27 26 27 30 32 32 31 30 27 24 21 22 22 21 21 20 20 22 24 25 24 23 21 20 19 18 17 16 16 15 15 15 15 15 16 17 16 15 13 11 9 8 8 9 9 8 8 9 9 8 8 7 5 6 8 10 12 13 15 17 17 18
8 8 4 3 3 2 3 2 4 5 5 4 4 6 8 10 12 11 12 8 3 6 6 5 15 15 6 4 9 9 2 8 18 23 26 28 28 28 30 32 32 32 30 28 24 19 18 19 20 19 19 18 19 22 23 23 22 21 19 18 17 16 16 16 15 16 16 16 16 17 17 16 15 12 10 9 8 8 9 9 8 8 9 9 8 8 7 5 5 8 11 12 13 16 18 19 18
7 5 3 3 1 2 2 2 4 5 4 3 3 8 10 15 17 10 8 5 3 2 8 12 15 12 4 4 7 7 5 10 19 23 25 28 28 28 29 31 32 32 29 28 25 20 17 16 17 18 17 17 17 19 21 21 21 20 19 18 17 17 17 16 16 16 16 17 17 17 17 15 13 11 9 9 9 9 9 9 8 8 8 8 7 7 6 5 4 7 11 13 13 16 19 19 19
6 4 3 3 1 1 1 2 4 4 4 5 5 10 16 21 20 11 9 8 5 3 8 5 5 7 6 11 11 9 10 10 17 23 25 26 27 29 31 32 33 31 28 27 24 20 18 15 15 16 16 16 16 18 19 20 20 20 19 18 18 17 16 16 16 17 17 17 17 17 16 14 12 11 10 10 10 10 9 8 8 7 6 6 6 6 6 5 4 6 10 13 14 17 20 20 20
5 4 3 2 2 1 3 3 4 3 5 5 7 15 20 23 19 13 12 9 7 7 9 6 9 13 12 10 9 11 14 13 18 23 25 26 27 30 32 33 32 29 29 28 23 20 18 15 17 17 16 17 18 18 19 20 20 20 19 19 18 17 16 17 18 18 18 18 17 16 15 13 12 12 11 10 10 9 8 7 7 7 6 6 5 5 5 5 4 5 10 13 14 17 21 22 21
3 2 3 3 3 1 3 4 4 4 7 5 8 19 22 22 16 10 10 7 7 10 11 11 13 17 14 6 6 12 17 16 19 23 26 26 27 30 33 32 29 28 30 28 21 20 18 13 15 17 17 18 18 18 19 19 20 20 19 19 18 17 17 18 19 19 19 18 17 15 14 14 14 13 11 9 9 8 7 7 7 7 6 6 5 5 5 5 4 5 8 12 14 17 22 23 22
2 0 4 3 2 3 4 3 4 5 8 6 6 16 22 18 10 4 8 6 8 8 7 7 12 18 11 3 9 16 19 20 22 23 25 26 28 30 30 29 27 28 29 26 21 20 20 15 13 15 17 17 17 18 18 19 19 19 19 18 18 18 18 19 20 20 19 18 16 15 14 14 13 11 9 8 7 7 7 7 6 6 6 5 5 5 5 5 5 5 7 11 13 16 21 24 23
3 2 5 2 3 3 3 3 4 5 6 4 6 15 26 14 3 4 9 9 10 7 4 11 22 19 7 3 12 19 21 22 22 21 24 25 27 28 27 26 28 29 26 24 22 22 22 19 16 16 17 17 18 17 18 18 18 19 19 19 19 19 19 19 20 20 19 17 16 15 14 14 12 10 8 7 6 6 6 5 5 5 5 5 5 5 5 5 5 5 6 9 12 14 20 23 23
3 3 4 1 1 2 2 2 2 2 4 5 6 18 25 11 2 5 9 9 3 3 9 19 25 16 8 7 8 19 22 22 22 20 24 24 25 26 25 27 29 29 27 25 25 24 24 22 20 18 18 18 18 19 18 17 17 19 19 19 19 19 19 19 19 19 18 16 15 14 13 12 11 9 7 6 6 5 5 4 4 4 4 5 5 4 4 4 5 5 5 8 11 13 17 22 22
3 1 3 2 1 2 2 2 2 2 3 5 10 20 19 9 4 4 7 7 4 8 15 19 20 8 11 13 10 24 24 24 25 20 22 23 24 25 27 30 30 30 28 27 27 27 26 24 23 21 20 20 20 20 19 18 18 18 18 18 18 19 19 18 18 17 16 15 13 12 11 11 9 8 7 6 6 5 5 4 3 4 4 4 4 4 3 3 5 5 5 6 9 12 14 19 21
3 1 3 1 2 2 2 2 3 3 4 6 14 20 11 7 8 8 5 10 12 13 11 11 10 1 17 23 19 32 29 28 26 19 23 24 26 28 30 31 31 31 27 27 27 27 27 27 26 24 23 21 21 21 20 19 18 18 17 17 17 17 17 17 16 15 14 13 11 11 10 10 9 8 7 6 6 6 5 4 3 4 4 4 4 4 3 3 4 5 5 5 7 10 12 15 19
3 2 3 1 3 3 3 3 4 4 5 8 14 18 7 6 11 9 7 17 18 11 7 7 7 5 19 21 23 37 31 30 27 23 26 26 29 31 32 32 32 31 28 28 28 29 29 29 29 26 25 23 22 22 21 20 18 18 17 17 17 16 16 16 15 14 13 11 10 9 9 9 9 8 7 7 7 6 6 5 4 4 4 4 4 3 3 3 3 4 4 4 5 7 10 13 16
4 3 2 3 3 4 4 5 4 3 4 7 11 14 5 5 9 7 6 12 15 12 11 8 3 6 17 17 27 37 31 32 29 28 30 28 32 33 34 34 33 32 31 31 30 31 30 29 28 27 27 25 24 23 21 20 19 18 17 16 17 16 16 15 14 13 12 11 10 9 9 8 7 7 7 6 6 6 6 5 5 5 5 4 3 3 3 3 3 3 4 4 4 5 9 12 14
6 3 2 4 4 5 5 5 4 3 6 9 10 12 8 6 7 7 2 2 8 11 10 11 13 14 16 22 34 35 32 34 30 31 31 29 33 36 37 36 34 33 33 32 31 32 31 29 28 27 27 25 25 23 22 20 18 17 16 16 16 16 14 13 12 11 11 10 10 9 8 8 7 7 7 7 6 6 6 6 6 5 5 5 4 3 3 3 3 3 3 4 4 4 7 10 13
6 4 2 6 5 5 7 8 11 12 11 9 9 11 12 12 7 7 1 2 4 5 5 8 16 20 25 32 36 33 33 33 31 30 28 29 33 37 39 37 36 34 34 33 31 32 31 29 28 27 26 25 25 23 22 20 18 16 15 15 14 13 12 11 11 10 10 9 9 9 8 8 8 8 7 7 6 6 6 6 6 6 6 5 5 4 4 3 3 4 3 3 3 3 5 9 13
4 5 4 6 3 3 12 15 16 18 12 8 11 11 12 11 5 3 2 2 3 3 8 8 15 26 33 37 36 34 33 33 33 30 27 30 34 38 38 36 36 34 33 33 32 32 30 29 27 26 25 25 25 22 21 19 17 15 14 15 13 12 11 11 10 9 9 8 9 8 8 8 8 8 8 7 6 6 6 7 7 7 7 6 6 6 5 4 3 4 4 3 3 3 6 9 12
2 4 7 8 4 3 15 19 16 17 11 8 10 8 6 7 5 1 4 4 4 5 9 12 18 27 34 39 38 35 34 34 33 30 29 32 35 38 36 34 35 33 32 32 32 30 29 28 26 26 26 24 23 21 20 18 17 15 14 14 13 12 11 11 10 9 9 9 9 9 9 9 9 9 8 8 7 7 7 8 9 8 8 8 8 8 7 5 4 4 5 3 3 3 7 11 12
4 5 7 12 10 6 16 20 17 16 9 7 6 6 7 6 8 5 2 2 3 4 8 15 19 25 34 40 39 36 36 34 32 31 31 33 36 36 34 34 34 33 32 31 31 29 28 28 26 25 24 23 22 20 18 17 15 14 14 13 12 12 11 10 10 9 9 9 10 10 10 10 9 9 8 8 8 8 9 9 9 9 9 9 9 9 8 7 5 4 4 4 4 4 9 12 12
6 5 5 13 14 12 22 26 24 19 10 12 11 7 10 7 7 5 1 1 2 2 7 18 23 29 35 38 37 37 36 34 32 31 30 32 34 33 32 33 33 32 31 31 31 29 28 26 24 24 23 23 21 18 17 15 14 13 13 13 11 11 10 10 9 9 10 10 11 11 11 10 9 8 7 7 8 9 9 9 9 9 9 9 9 9 8 7 6 5 5 5 6 6 10 12 11
5 6 6 10 13 17 26 28 27 23 17 20 15 7 12 13 8 3 3 2 4 6 12 23 29 32 35 36 36 36 35 34 32 32 31 32 33 32 32 32 32 31 29 30 30 28 27 26 25 25 24 22 19 16 15 13 13 12 12 12 11 10 10 10 10 10 10 10 11 12 11 10 9 8 7 7 7 8 8 8 7 8 8 9 9 10 9 9 7 5 6 6 7 8 10 11 10
5 9 8 7 12 19 23 22 24 22 17 15 8 7 14 14 7 3 3 7 10 13 20 28 31 34 35 35 36 36 35 34 33 33 32 33 33 32 32 32 31 29 28 28 28 27 27 26 26 26 23 19 16 14 13 13 12 12 12 11 11 11 10 10 10 10 11 10 11 11 11 11 10 9 8 8 8 8 7 6 6 7 8 8 9 10 10 10 8 6 6 7 8 10 11 11 10
4 7 9 10 16 19 17 15 19 17 13 13 8 7 10 8 6 1 4 12 15 18 24 28 32 34 35 35 36 35 35 33 32 33 33 34 33 32 33 33 31 28 27 26 25 24 24 25 26 24 21 17 15 13 12 13 11 11 11 11 12 11 10 11 10 10 10 10 10 11 11 11 11 10 9 9 9 9 7 6 7 8 8 8 9 10 11 10 9 8 7 8 9 10 11 11 9
9 9 8 11 13 14 13 11 12 8 7 12 9 4 6 2 5 7 14 18 19 22 25 27 31 32 34 35 35 35 35 33 32 33 34 34 34 33 34 33 31 28 27 25 24 25 24 24 23 20 17 15 14 12 11 11 10 10 10 11 11 11 11 10 10 9 9 9 9 10 11 11 11 10 9 8 8 9 8 8 8 9 9 9 8 9 10 9 9 9 8 8 8 10 11 11 10
10 5 3 8 8 7 10 8 8 6 4 7 6 3 6 3 3 12 23 23 21 23 25 26 28 30 32 33 34 34 34 34 33 33 33 33 33 34 33 32 31 28 26 24 24 25 22 19 16 14 15 14 13 11 10 10 9 10 10 10 10 10 10 9 9 9 9 9 9 10 11 11 10 9 9 9 9 10 11 10 9 8 8 9 9 8 9 9 9 9 8 8 8 10 11 11 11
7 2 1 4 7 6 6 3 3 2 4 9 6 3 7 5 6 18 27 25 23 22 23 25 25 27 29 30 31 32 33 34 34 34 32 31 32 34 33 32 30 27 25 24 22 19 16 13 11 12 13 12 12 10 9 9 9 9 9 8 7 8 8 8 8 8 9 9 9 10 10 10 9 8 9 10 10 11 12 11 9 8 8 9 9 9 9 9 9 9 8 8 8 10 11 12 12
4 2 2 2 2 5 7 2 1 2 5 11 9 3 7 4 8 21 27 28 28 23 22 24 24 26 28 29 30 30 31 32 34 33 29 28 32 33 33 32 29 24 22 20 18 16 15 13 11 13 13 12 12 10 8 8 8 8 7 7 7 7 7 7 8 7 7 7 7 8 8 8 8 7 9 9 10 12 11 10 9 9 9 9 9 9 9 9 9 9 9 9 10 10 11 12 12
3 2 2 3 0 5 10 5 5 5 6 10 10 3 4 3 11 23 27 29 29 25 24 24 25 27 28 28 28 29 29 29 30 29 27 27 29 28 27 29 26 21 18 17 18 17 15 13 13 14 12 11 11 9 9 9 8 7 7 7 7 6 6 6 6 5 5 6 5 5 5 6 6 7 8 8 8 10 9 9 9 9 10 10 10 9 9 8 9 10 10 11 11 11 12 13 12
3 2 2 4 2 3 7 5 6 9 5 5 6 4 2 3 12 22 27 28 26 24 24 25 26 27 27 28 27 28 28 27 26 25 27 28 27 23 21 22 20 17 16 17 19 18 16 16 16 15 12 11 10 9 10 9 8 8 8 7 7 6 6 5 5 4 4 4 3 3 3 4 5 6 6 6 6 7 7 8 9 9 10 10 10 10 9 9 10 10 11 11 11 11 12 13 12
4 2 0 3 3 2 4 6 6 3 4 4 4 4 3 5 6 16 21 24 22 23 25 24 25 25 25 26 26 28 30 29 26 25 27 28 25 22 20 20 19 17 16 17 18 18 18 16 14 16 14 12 11 9 10 10 10 10 9 8 7 7 6 6 5 4 3 3 3 3 3 4 5 5 5 4 5 5 6 7 8 8 10 11 11 11 10 10 11 11 11 12 11 10 11 13 13
2 2 1 3 3 2 4 6 6 4 1 5 3 3 4 6 2 11 15 17 15 16 20 20 21 22 23 25 27 29 30 30 28 26 26 26 23 22 21 20 21 20 17 18 18 17 17 15 15 18 16 13 11 11 12 12 12 11 10 9 8 8 7 7 6 4 3 2 1 1 3 4 4 4 4 3 3 3 4 4 5 6 8 9 11 11 11 11 12 11 11 12 12 11 11 12 13
5 4 3 3 4 4 6 6 5 3 2 3 4 4 2 2 5 9 13 14 10 9 13 16 19 21 23 24 27 30 31 30 28 27 26 24 24 24 23 22 23 22 21 19 20 19 20 20 19 19 16 14 13 14 14 13 12 12 11 9 8 8 8 8 7 5 3 1 1 2 2 3 4 4 4 4 4 3 3 3 3 4 5 6 7 9 10 11 11 10 11 12 13 12 12 12 13
4 2 3 5 4 4 6 5 6 1 5 1 2 6 5 6 8 8 13 13 9 11 13 15 19 22 24 26 28 30 29 30 29 29 28 25 27 26 22 23 28 29 24 21 23 23 23 21 19 18 16 16 16 15 14 13 12 11 10 10 8 7 7 7 6 5 3 1 2 2 2 3 4 4 5 6 5 5 5 5 4 4 4 4 4 5 6 8 10 10 11 13 13 12 12 12 12
3 3 4 4 3 5 6 4 7 4 5 3 2 7 4 4 5 6 13 12 10 16 17 18 21 22 23 25 27 28 27 28 30 30 29 29 31 28 23 27 33 33 28 25 26 25 23 21 20 19 17 16 16 14 13 13 12 10 9 9 8 7 5 4 4 2 2 2 3 3 4 4 5 5 7 7 6 6 7 6 6 5 4 4 4 4 4 5 6 9 11 12 12 11 11 11 11
3 2 2 2 3 4 6 5 7 5 5 2 3 5 1 3 4 5 8 10 13 24 27 26 27 24 24 26 28 29 28 28 31 32 32 33 34 30 26 30 34 35 33 30 29 26 25 24 22 20 17 18 17 15 14 13 12 11 10 10 9 8 6 5 4 3 3 4 5 5 6 6 6 6 7 7 7 7 7 6 5 5 5 4 3 3 3 2 3 6 8 10 10 11 11 11 11
2 2 2 2 3 1 3 5 7 6 3 1 3 4 3 5 3 5 6 3 6 19 24 24 28 28 28 31 32 34 33 32 33 33 34 35 36 33 30 33 34 34 35 33 30 28 27 24 21 20 19 19 19 17 16 14 13 13 12 11 10 9 7 7 6 5 6 6 7 7 6 5 6 7 6 6 6 6 4 2 2 4 4 3 1 1 2 1 1 3 6 8 9 10 10 10 10
3 2 4 3 3 2 3 5 5 4 5 4 5 5 5 5 2 3 5 2 1 10 15 16 21 22 23 27 30 34 35 36 37 36 37 38 38 35 31 34 34 31 33 32 29 29 28 23 20 19 20 20 19 18 17 16 16 15 14 13 12 10 10 9 9 8 8 8 8 7 6 6 5 5 4 4 5 4 2 2 2 3 3 1 1 1 1 1 1 1 4 7 8 8 7 7 7
4 3 6 7 5 4 3 4 5 5 5 4 5 4 3 5 2 4 3 2 2 7 10 11 15 15 17 22 26 29 33 35 37 39 39 39 38 35 32 34 34 31 32 31 28 28 26 22 20 20 20 20 20 19 19 18 17 16 15 14 13 13 12 11 10 9 9 8 7 7 7 6 5 4 4 4 4 3 2 2 2 2 2 1 1 0 1 1 1 1 2 4 5 5 5 4 5
2 4 6 6 6 3 1 4 5 2 1 3 5 5 3 5 2 4 3 5 5 5 6 8 12 14 15 20 24 27 30 32 34 36 38 38 36 34 34 35 33 31 30 27 26 26 24 22 21 21 21 21 20 20 20 20 19 18 15 13 12 11 10 10 9 8 7 7 6 6 6 6 6 5 5 4 4 4 3 2 2 2 2 2 2 3 3 2 1 2 2 2 3 2 2 2 3
3 5 5 8 6 4 3 5 4 1 2 3 5 4 2 3 3 4 2 4 5 5 7 6 11 16 15 19 23 26 30 32 33 35 36 36 34 33 34 34 32 31 28 25 25 24 23 22 23 23 22 22 22 22 22 21 20 17 14 13 11 9 7 7 7 7 6 6 5 5 6 7 7 7 7 6 5 5 4 3 2 2 2 3 4 5 6 5 3 3 3 2 2 3 3 2 1
6 6 7 6 5 6 5 6 3 2 2 3 6 3 1 4 5 4 2 4 2 7 9 8 12 18 17 18 22 25 29 32 33 35 35 34 33 33 33 32 31 32 29 23 22 23 24 24 25 24 24 24 24 24 24 22 19 16 12 12 11 9 8 8 7 7 7 6 5 5 6 6 7 7 7 7 7 5 4 3 1 1 1 1 2 3 3 2 3 2 1 1 1 2 3 4 3
4 5 6 4 4 4 4 5 3 3 3 3 6 2 1 4 5 4 4 4 0 6 8 7 12 17 19 20 23 26 29 31 32 33 34 33 32 31 31 31 32 34 30 23 21 23 26 26 26 27 27 27 27 26 24 21 19 16 12 12 12 11 10 10 10 9 7 6 6 6 6 5 5 5 5 5 5 4 2 1 3 3 3 3 5 6 5 4 3 2 2 2 2 1 2 2 2
2 5 5 5 5 5 4 3 4 4 1 5 7 2 3 1 5 2 1 2 3 6 6 6 8 13 18 22 26 27 30 31 30 31 32 32 31 30 32 33 31 29 27 26 26 24 26 27 28 29 29 29 28 26 23 21 20 18 15 14 13 12 12 13 12 10 8 7 7 6 6 6 5 4 4 4 4 3 4 5 6 5 5 6 7 8 9 8 6 5 5 4 4 4 3 2 2
4 5 4 2 2 4 4 4 4 4 2 6 6 3 4 2 4 4 3 5 5 5 6 7 6 14 20 24 26 28 30 30 30 31 32 33 32 32 33 34 31 26 25 28 29 23 23 27 28 29 30 29 28 25 23 22 21 21 19 17 15 13 13 14 12 9 8 7 7 8 8 7 7 6 6 6 7 6 7 7 7 6 6 6 6 7 7 8 8 7 7 6 5 5 5 5 4
5 5 5 3 1 3 2 3 1 2 3 3 3 2 1 3 5 5 6 6 5 4 3 4 5 14 22 23 24 26 28 29 29 31 33 34 34 34 35 34 33 31 29 30 28 23 23 25 26 29 31 29 27 25 25 24 24 23 21 20 17 14 14 15 12 9 8 8 8 8 8 8 8 8 8 8 9 9 8 7 6 5 5 5 5 5 6 7 8 7 7 6 6 6 6 6 5
4 4 4 3 2 2 1 3 1 2 3 2 3 2 1 3 4 3 6 7 4 7 9 6 2 10 20 23 24 25 25 26 29 31 33 34 34 34 34 36 35 32 31 31 27 24 23 23 26 30 31 29 27 26 26 24 24 23 22 21 18 16 16 17 13 11 9 9 9 9 9 9 9 8 9 9 9 9 9 8 6 5 6 7 6 6 7 7 8 8 7 7 6 7 7 6 5
3 4 6 4 4 4 3 3 2 3 2 2 3 1 2 2 3 4 7 5 8 17 18 16 13 10 16 19 21 23 23 24 26 29 31 33 34 34 33 34 32 27 28 29 26 25 25 26 30 30 28 27 26 26 26 24 23 22 21 21 19 17 18 17 15 13 12 11 11 11 11 10 10 9 9 9 9 9 9 9 9 8 8 8 8 7 7 8 8 8 8 8 8 8 8 7 6
2 2 5 2 4 5 2 2 5 4 1 1 2 1 2 3 3 6 5 3 11 18 20 22 20 16 17 18 17 18 19 20 23 26 28 28 28 30 30 28 24 22 25 27 26 25 25 29 30 26 26 29 28 28 27 23 22 22 22 22 20 19 19 18 17 15 14 14 13 12 12 11 11 11 10 10 9 9 9 9 10 9 9 8 8 7 7 7 7 7 7 8 8 9 9 8 7
1 2 3 3 4 7 5 1 1 3 3 2 1 2 1 2 3 6 5 6 8 11 14 18 20 21 21 19 17 18 16 15 15 15 19 21 21 24 26 24 21 22 26 27 26 24 24 28 28 26 30 33 29 28 26 24 24 24 24 24 22 20 19 18 18 17 16 16 15 13 12 12 12 11 10 9 9 8 8 7 7 7 7 7 6 6 5 5 5 5 5 6 7 8 8 8 8
3 2 4 2 3 5 5 2 3 4 1 3 2 3 2 2 1 5 6 4 4 6 8 11 16 20 19 16 16 18 16 13 11 7 8 13 15 16 19 18 18 22 26 26 25 23 23 25 25 26 30 31 26 24 24 26 27 26 25 25 23 20 18 16 16 17 17 16 16 15 14 13 11 10 9 8 7 7 6 5 4 3 3 4 4 4 3 3 3 2 2 3 4 4 6 6 7
3 2 2 2 2 1 1 2 2 1 2 2 3 0 3 3 2 3 3 3 2 4 5 6 8 13 17 15 14 16 14 10 7 5 7 9 8 8 10 11 13 18 23 24 23 23 22 22 21 21 23 21 20 20 22 25 27 27 27 26 23 21 18 14 14 16 17 17 17 16 14 12 10 9 9 8 7 6 5 4 4 3 2 2 2 2 2 2 1 1 1 1 0 1 1 3 4
3 3 3 2 3 4 2 2 3 3 3 2 2 2 2 4 4 4 5 6 5 5 5 5 6 8 13 16 17 19 18 14 12 12 9 8 7 6 6 8 11 15 18 19 19 19 18 18 17 17 17 16 16 18 20 24 27 28 29 27 24 23 20 14 13 15 16 16 16 15 14 11 9 7 6 5 5 4 4 4 4 4 4 4 3 3 2 2 3 2 2 2 2 2 2 2 2
3 4 4 3 2 2 2 1 1 3 4 3 1 0 4 5 3 5 6 6 5 6 6 5 8 10 13 17 19 18 16 15 13 11 10 9 7 6 6 7 9 11 12 12 11 11 12 13 14 15 16 15 15 16 20 24 27 29 30 28 25 25 21 15 13 14 14 14 14 14 12 9 7 6 5 5 4 3 3 3 4 4 4 5 5 5 4 4 4 3 3 3 4 4 4 4 4
4 3 1 0 2 3 3 1 1 2 4 4 4 2 6 5 2 4 6 5 5 8 10 9 12 16 15 14 13 12 13 14 12 9 8 8 7 7 7 7 8 8 9 8 8 8 9 10 11 12 14 14 15 17 21 25 27 28 28 25 23 23 21 16 15 15 13 14 14 13 11 10 9 8 8 7 6 6 6 6 7 6 6 6 6 6 5 5 4 5 4 4 4 4 5 5 5
Wind_Direction
160 164 170 164 159 157 155 148 135 339 95 207 271 215 257 232 233 273 274 281 170 300 317 151 117 110 103 98 122 110 57 66 189 132 175 137 141 147 147 158 162 165 166 165 169 170 171 172 174 177 177 175 174 173 173 171 168 165 161 157 152 148 145 143 140 137 140 144 144 144 142 142 141 140 136 132 131 131 129 126 124 130 126 115 113 117 125 124 121 122 123 126 133 138 141 143 145
140 150 159 163 162 157 170 134 108 339 63 309 271 174 256 282 257 255 258 246 167 153 93 101 103 96 91 90 98 91 46 28 44 102 106 136 147 147 148 157 161 164 164 164 167 168 169 171 174 175 176 174 173 174 173 172 170 167 164 159 155 152 148 146 145 143 143 147 148 146 145 144 143 139 133 126 124 126 128 127 129 140 132 108 106 117 124 120 124 127 119 121 134 141 142 145 146
135 145 154 160 153 144 141 83 79 97 95 241 264 223 262 292 238 240 266 222 161 135 106 103 95 89 92 80 65 86 73 47 96 112 117 146 152 149 154 159 161 164 163 164 166 169 168 167 172 172 172 173 174 175 174 173 171 168 164 160 157 154 151 149 149 148 147 149 150 149 148 146 144 138 131 124 121 123 124 126 130 136 125 104 99 110 120 120 123 125 121 123 135 141 144 148 148
139 142 146 152 143 123 97 67 125 121 142 218 266 265 235 255 248 251 313 204 164 152 130 120 85 70 95 96 89 88 88 88 113 121 129 153 154 151 159 161 163 164 163 165 168 170 168 165 169 171 171 174 175 175 174 172 171 168 164 161 158 156 153 152 152 153 152 152 152 151 149 148 145 137 130 125 122 124 124 127 130 128 117 104 98 103 118 131 132 130 130 130 135 140 146 151 151
144 144 145 148 140 128 91 85 119 124 203 198 234 260 239 247 270 302 347 7 195 198 208 158 96 86 87 78 70 92 106 115 125 132 141 156 159 156 160 163 164 163 163 166 168 169 169 165 165 170 171 174 175 174 174 172 170 168 164 161 159 158 155 154 155 155 155 154 153 152 151 149 146 139 132 129 127 128 127 128 126 117 108 99 94 99 111 128 139 138 132 133 138 141 147 152 154
148 151 150 130 103 124 112 123 165 208 227 170 180 266 272 263 284 305 323 334 232 217 244 233 124 112 83 61 60 84 124 136 142 147 150 157 164 163 162 163 164 163 163 164 166 170 168 162 162 168 170 172 174 175 175 173 171 168 165 163 161 160 157 157 157 157 157 156 155 154 153 151 149 144 138 136 134 132 127 121 116 109 102 97 91 92 101 120 142 144 130 131 141 143 149 154 156
152 155 153 116 71 75 116 167 197 228 243 167 179 270 286 285 291 304 315 325 239 214 219 149 116 108 71 55 60 56 112 155 150 154 155 159 167 168 164 164 165 164 163 162 162 167 167 162 162 165 168 168 172 175 175 174 172 170 168 166 165 163 160 159 159 159 160 158 157 155 154 152 150 146 144 141 137 132 122 115 109 101 98 97 92 86 86 104 144 154 133 131 143 147 153 157 158
156 157 126 115 53 32 110 202 230 221 249 229 229 268 275 280 284 291 298 288 262 237 146 128 103 92 40 66 65 59 128 154 152 157 161 162 167 166 163 165 164 161 161 161 159 163 165 163 159 155 161 165 167 171 174 175 173 171 170 169 167 165 162 160 160 160 159 157 154 153 151 150 149 147 145 140 135 128 120 114 106 97 94 93 91 85 81 86 131 160 142 136 147 153 156 159 161
153 152 117 104 120 46 22 274 263 237 264 273 263 266 269 274 276 272 268 270 256 150 136 157 100 102 91 84 82 103 132 157 158 160 164 163 165 163 163 166 163 159 159 159 157 158 160 162 158 153 157 161 166 168 170 173 172 171 170 169 167 164 162 160 159 159 156 152 150 149 148 148 148 146 144 139 134 128 122 117 109 103 97 91 87 87 86 82 107 156 151 146 151 157 159 161 162
138 138 131 87 113 77 309 277 258 263 263 257 269 272 274 275 273 256 252 263 223 153 121 113 106 116 111 87 76 111 137 162 163 162 165 163 162 163 164 165 163 161 160 159 157 153 154 157 155 157 158 160 165 164 164 166 166 167 167 166 164 162 159 157 156 156 153 149 148 147 148 149 149 147 145 142 137 134 130 124 115 108 101 91 86 87 90 89 97 141 154 151 153 160 162 163 162
112 117 110 83 85 165 239 258 263 277 274 286 291 283 288 283 277 250 236 238 194 151 127 105 97 109 103 82 83 129 152 164 166 161 163 164 164 166 165 165 164 162 159 158 157 149 146 148 150 155 156 159 163 159 159 159 159 162 162 162 160 157 154 153 153 153 152 150 150 151 152 153 152 150 146 143 140 140 138 130 119 110 103 94 90 90 94 97 96 126 150 151 152 161 165 166 163
102 95 82 97 136 186 211 244 274 290 291 309 283 298 318 306 293 218 192 168 147 139 150 141 128 120 97 69 118 143 159 162 167 161 162 167 167 167 166 165 162 159 156 155 154 147 143 150 156 154 154 159 161 158 160 159 159 159 158 157 154 151 150 151 152 153 153 153 154 155 158 158 155 152 144 141 140 142 141 133 121 110 105 98 97 96 95 97 98 114 141 149 150 160 167 168 166
155 161 90 130 184 185 222 235 272 306 301 297 247 312 336 328 328 154 157 130 136 141 160 156 144 126 98 130 133 150 159 163 167 162 166 169 168 168 167 162 158 156 154 152 152 149 145 151 159 158 159 162 160 157 159 158 158 157 154 153 150 149 151 152 152 152 154 154 157 159 161 161 159 156 147 143 142 143 140 130 119 110 109 108 108 101 94 93 97 109 129 147 150 157 168 171 170
174 174 114 172 213 186 227 238 272 309 276 288 287 321 334 335 60 119 121 106 100 140 146 151 146 123 117 139 143 157 158 167 166 163 170 170 170 169 163 156 156 157 154 155 156 154 151 153 159 162 164 161 157 155 155 156 156 155 151 150 148 148 151 153 153 153 155 156 159 162 164 164 162 161 156 152 148 148 142 136 129 121 123 123 122 108 94 90 98 115 125 143 151 153 165 173 175
195 206 105 129 322 255 228 195 195 183 253 297 318 323 329 341 35 64 87 92 43 119 136 147 146 115 159 166 175 169 163 169 165 164 172 169 170 164 158 157 159 159 156 160 160 157 155 156 159 162 164 160 158 156 153 154 157 154 149 147 145 147 152 154 156 156 158 159 162 163 163 162 164 167 168 166 160 160 157 154 152 144 145 139 136 124 105 98 103 121 130 137 149 153 160 172 179
206 228 76 103 248 244 220 178 166 182 261 280 316 333 340 357 25 23 44 119 116 126 125 147 164 320 178 174 177 173 167 167 163 166 170 165 163 157 158 161 161 159 158 164 163 161 160 160 162 163 165 163 161 156 153 156 158 155 148 146 146 150 155 157 160 160 162 165 168 168 165 166 168 172 176 178 175 175 174 175 179 169 165 157 152 144 125 114 114 124 135 137 144 153 160 169 178
198 161 81 289 213 207 214 186 163 176 269 281 319 344 358 348 15 38 87 122 117 120 94 136 211 255 183 179 172 167 164 165 162 163 164 158 158 157 162 163 161 160 162 167 166 165 165 165 164 165 167 165 163 157 157 160 160 157 151 150 152 157 161 163 166 165 169 171 174 174 173 175 177 180 183 187 184 185 188 192 198 193 187 179 166 157 140 130 128 127 130 136 140 149 160 169 177
176 123 133 226 202 205 194 186 186 169 275 291 319 334 349 347 354 28 85 108 98 95 80 98 165 178 175 175 164 162 161 164 161 161 160 157 159 160 164 164 161 162 166 170 169 167 169 169 167 168 168 166 165 161 163 167 166 162 157 158 161 166 169 171 171 169 171 172 173 176 177 183 188 194 199 199 194 196 201 206 214 211 207 202 185 172 157 146 139 129 123 132 143 151 160 168 175
177 119 168 228 202 211 208 209 236 221 265 284 304 316 332 333 334 1 15 126 91 88 72 87 103 122 152 159 160 161 161 162 162 163 160 159 163 164 165 166 165 166 168 171 171 170 172 171 170 171 170 168 167 164 169 173 173 169 165 167 171 175 177 177 176 175 176 176 178 180 185 190 195 203 209 210 206 208 212 218 225 225 222 216 205 192 179 164 154 147 135 133 139 157 166 168 173
195 163 210 245 218 235 257 252 254 256 259 277 300 312 320 313 329 3 309 181 81 116 130 107 113 127 143 153 158 160 162 163 164 165 163 163 166 167 168 169 170 169 169 170 172 174 174 173 172 173 174 174 169 167 173 178 179 177 176 178 181 184 185 185 186 188 187 189 191 192 199 203 207 211 215 220 216 213 216 224 230 233 233 227 219 211 203 192 177 173 168 161 152 166 180 173 172
192 178 210 239 209 254 271 263 260 264 258 265 293 307 315 311 331 25 142 135 345 216 189 170 151 148 149 155 160 162 165 165 165 167 167 167 169 170 172 173 172 169 169 171 174 175 174 174 175 176 180 180 172 170 177 182 183 183 186 187 190 193 195 197 198 200 202 206 206 206 213 215 220 223 227 234 228 218 219 226 229 232 233 233 228 223 219 206 195 197 193 190 187 193 190 179 175
195 221 227 241 228 241 271 270 271 273 265 267 291 301 303 313 319 340 144 172 266 252 212 199 180 167 162 162 162 163 167 168 167 169 170 169 170 171 173 174 172 171 172 173 174 173 171 174 178 180 185 184 175 173 180 185 187 189 194 198 200 201 205 210 211 214 218 225 222 221 225 226 228 232 239 239 233 228 226 226 229 232 231 233 232 230 224 213 210 209 202 200 207 211 187 176 176
226 268 244 253 246 234 271 276 278 278 267 259 266 281 293 317 310 287 164 203 277 286 222 196 184 174 167 164 162 165 169 170 170 170 171 170 169 170 172 173 173 173 174 173 175 174 173 178 183 185 188 188 180 177 182 187 192 194 200 207 210 212 217 220 223 226 228 233 232 230 234 235 232 235 241 238 237 235 230 227 229 235 235 236 238 240 234 226 226 210 197 194 200 201 180 171 170
210 263 258 261 258 251 270 275 275 271 255 257 262 282 291 277 274 286 31 8 289 284 202 181 172 165 163 162 163 166 169 172 171 170 171 171 170 170 171 173 174 175 176 176 179 179 180 184 188 190 193 194 187 179 183 189 197 202 206 213 216 222 226 226 230 234 234 236 236 235 238 242 236 237 238 235 238 233 230 227 230 238 241 243 244 246 245 240 238 216 198 190 192 190 176 171 172
205 238 257 265 266 263 270 273 270 266 254 261 268 262 262 250 249 319 45 103 166 177 168 166 163 160 161 162 165 168 170 172 170 170 172 172 171 172 174 174 174 176 178 180 184 185 186 188 191 196 198 197 191 184 185 190 199 208 213 217 221 229 232 231 235 238 241 242 241 239 243 246 240 242 246 243 237 225 226 228 230 238 243 247 246 248 250 246 242 225 206 196 193 189 179 178 183
207 224 256 273 275 273 273 271 265 263 254 252 252 232 252 250 241 13 85 150 158 159 156 159 160 159 161 164 168 170 172 173 172 172 172 174 174 176 176 176 174 175 179 183 187 188 190 192 194 199 200 196 194 192 189 190 198 209 215 220 224 232 237 240 241 240 242 244 244 242 245 245 241 246 249 249 238 221 230 239 237 237 239 246 245 246 248 244 241 230 212 202 201 197 190 190 191
251 254 273 270 274 277 274 272 264 255 242 231 211 223 260 242 204 191 158 164 163 153 147 156 159 160 164 166 170 174 175 175 174 173 173 176 178 178 177 176 175 175 181 184 185 189 192 197 199 200 198 194 196 198 194 191 195 203 209 217 226 234 238 241 243 242 244 245 244 241 245 245 245 251 249 252 242 225 237 250 244 239 236 240 241 242 244 245 243 239 223 210 207 205 202 201 199
296 297 297 282 287 285 267 268 264 238 225 227 201 228 286 226 188 183 169 168 170 159 148 155 159 161 166 169 173 177 177 177 178 177 176 179 181 179 177 176 174 174 182 184 185 190 193 199 203 199 195 194 198 200 195 190 191 193 197 207 221 233 235 235 241 246 245 241 238 237 242 245 247 251 251 254 243 231 242 249 242 239 238 237 238 241 244 247 249 249 239 225 218 211 210 211 209
303 308 299 297 333 312 258 245 238 200 190 208 168 319 300 282 238 171 164 166 167 161 153 157 161 163 167 170 174 177 178 178 180 182 182 183 182 179 176 175 175 173 176 182 189 193 194 199 200 196 195 194 197 198 194 192 188 187 193 202 214 226 230 233 240 244 241 237 235 236 241 246 249 253 254 250 235 233 244 249 245 241 244 245 245 244 244 250 256 254 244 236 228 215 214 218 219
310 330 147 306 352 328 264 210 220 190 191 186 149 297 271 276 240 167 162 164 160 158 158 161 163 165 168 171 174 178 179 179 181 184 186 186 184 179 174 175 176 174 175 184 191 192 194 195 193 201 200 193 194 195 194 195 188 189 198 204 211 221 229 236 238 238 238 239 238 237 242 247 250 250 252 249 238 237 243 248 253 253 250 249 249 245 244 252 256 252 245 242 234 220 216 219 223
323 347 58 356 347 292 288 279 273 334 227 186 151 242 246 257 211 172 167 168 163 162 165 166 166 167 171 173 175 178 180 182 185 187 189 192 189 182 175 173 174 174 177 185 188 190 196 193 192 203 200 193 194 192 194 198 196 198 204 211 215 218 225 233 235 234 232 233 234 232 236 246 246 240 243 244 239 238 240 246 254 260 257 250 247 244 245 252 251 247 246 247 239 228 221 218 221
3 8 332 328 309 278 299 287 204 214 234 184 154 223 258 227 199 179 172 172 167 165 167 169 169 169 173 176 177 178 179 183 186 188 192 193 192 186 178 175 172 170 175 184 186 189 196 195 195 200 197 193 191 190 196 199 202 206 210 213 209 207 213 221 224 220 215 218 227 231 232 243 246 242 242 241 237 235 234 241 250 257 261 257 253 250 249 248 245 243 244 246 241 232 224 218 221
0 49 249 284 303 306 314 308 224 208 211 193 174 194 241 251 206 183 175 175 168 163 167 170 170 171 173 175 178 179 181 183 183 188 191 192 194 189 176 168 164 168 181 190 188 186 194 198 198 197 192 192 192 194 198 197 201 204 205 203 193 195 207 212 211 208 205 202 214 234 228 227 236 241 245 244 243 240 236 240 246 252 258 257 255 251 248 244 240 241 245 248 243 235 226 220 222
320 9 323 265 258 291 306 307 289 225 180 210 217 192 233 305 216 183 177 175 168 165 170 171 168 168 170 173 177 181 184 185 183 187 189 193 194 181 167 161 163 176 186 190 191 192 196 195 200 203 195 194 197 195 196 196 196 196 194 190 184 188 201 209 209 207 206 195 199 220 225 223 227 236 248 252 249 246 244 246 246 250 253 252 251 247 246 244 240 240 245 249 242 234 230 225 226
237 284 331 292 275 267 267 276 303 321 189 182 190 209 280 336 123 161 169 173 172 172 171 168 164 164 170 175 179 183 187 185 183 186 188 191 185 168 166 168 170 176 173 177 188 194 188 180 197 210 201 195 197 192 195 198 196 194 193 189 185 185 191 199 203 203 202 199 211 251 251 244 242 246 256 257 245 241 248 247 244 248 247 246 247 245 243 242 242 241 242 245 239 232 233 233 231
188 217 195 240 273 275 261 260 281 303 94 136 175 188 195 78 119 139 159 169 168 163 159 158 163 169 174 179 182 186 187 184 182 186 187 185 177 167 167 168 167 167 165 173 185 188 186 187 203 212 201 195 196 195 198 202 202 199 198 197 192 186 182 186 192 198 205 232 341 339 292 250 248 246 249 242 221 220 230 233 235 237 236 237 239 240 238 237 238 236 235 239 239 236 235 235 232
171 180 191 240 259 276 276 279 298 6 94 10 197 157 153 159 164 154 151 154 148 149 155 164 173 178 181 183 186 187 184 182 182 185 183 179 176 173 174 171 166 167 172 181 190 194 199 204 210 209 199 198 200 201 206 212 214 211 208 205 201 196 187 185 193 197 210 276 331 329 287 244 238 230 232 230 224 229 235 240 247 246 243 237 233 232 232 235 232 226 226 232 237 237 236 233 230
152 173 209 270 262 267 281 280 308 359 92 332 24 115 137 173 193 175 151 153 165 165 167 177 182 183 185 186 186 185 181 179 181 182 179 179 179 180 184 180 174 174 177 187 195 201 209 211 210 205 198 199 204 211 217 221 225 227 229 229 224 220 208 204 221 232 252 294 307 303 295 276 254 233 225 227 235 244 243 249 258 253 245 239 238 233 227 235 230 222 223 227 232 235 235 234 231
119 166 176 299 277 283 303 308 319 1 85 316 8 94 175 262 275 257 185 177 184 179 178 179 182 184 187 189 186 182 179 178 181 183 181 182 184 186 189 186 183 182 182 191 198 201 206 208 205 200 196 200 208 215 219 224 229 233 241 245 239 234 226 214 229 259 272 280 285 287 291 283 264 251 243 242 245 245 243 256 264 248 234 230 233 241 241 241 227 222 224 226 231 235 237 237 233
158 172 115 283 287 354 314 311 327 348 41 106 100 82 311 311 327 277 243 230 187 185 184 181 183 186 190 192 188 182 180 180 183 185 185 185 187 189 191 190 189 189 192 198 199 197 201 203 200 196 196 204 210 213 216 223 229 232 236 238 235 232 222 209 214 238 250 253 264 273 270 254 247 251 253 249 242 239 241 252 253 240 237 235 239 285 287 300 255 233 230 228 230 234 238 238 234
260 200 148 198 258 224 236 295 329 347 9 50 82 52 333 338 7 258 260 316 87 181 187 188 191 194 197 196 190 184 184 184 185 187 187 187 188 190 194 194 194 196 199 201 200 199 199 198 198 197 199 206 211 212 217 224 229 228 224 221 219 216 207 204 213 228 236 243 251 250 233 218 226 234 229 232 234 238 223 159 197 249 268 277 48 32 4 26 44 226 233 228 224 226 233 239 233
301 240 189 184 190 208 254 339 19 36 6 358 56 59 303 321 313 250 270 265 182 174 190 199 197 202 206 199 192 186 186 187 188 188 187 187 189 192 195 195 196 199 200 200 201 200 199 200 200 199 202 208 210 213 219 226 228 221 213 208 208 208 204 207 221 233 236 239 237 221 207 202 210 211 208 220 237 246 228 182 206 247 271 261 202 313 353 32 68 139 214 215 210 213 214 219 221
306 248 192 157 133 137 78 41 58 77 303 317 57 109 241 319 309 258 274 219 208 186 198 206 197 201 205 199 193 187 186 189 189 189 188 189 191 193 193 194 197 200 198 198 199 199 202 204 203 202 205 207 209 215 219 220 217 211 207 206 207 207 204 207 218 231 232 229 219 202 194 194 199 209 220 231 239 245 250 258 260 243 246 256 262 285 294 291 232 146 126 150 168 175 173 186 207
237 238 139 126 125 147 148 86 85 185 243 324 14 93 160 313 271 276 315 188 220 223 208 212 204 203 200 197 195 189 188 190 191 191 191 192 193 193 194 195 197 197 192 189 193 198 205 206 205 205 204 204 207 211 211 208 206 204 203 205 209 210 210 209 207 210 214 212 207 201 199 203 209 220 231 238 237 237 254 280 275 230 238 278 295 289 281 269 219 148 104 102 103 87 89 91 121
237 210 133 135 154 161 141 101 91 7 34 317 329 32 104 280 271 304 24 129 221 249 225 216 208 202 196 195 196 190 189 192 194 196 194 194 194 194 197 197 196 195 188 185 193 199 202 205 207 204 201 200 200 201 202 201 203 205 204 205 211 213 211 208 203 202 204 201 199 199 202 213 223 231 236 235 230 236 266 297 326 153 205 313 337 315 284 251 185 163 105 116 114 80 90 85 77
227 160 117 78 79 94 85 99 108 37 54 234 284 337 117 272 292 331 20 80 227 264 254 239 216 201 190 190 193 190 189 193 197 198 196 195 195 197 199 196 195 194 189 188 197 199 198 200 202 200 198 197 195 196 198 199 204 209 210 211 214 215 206 199 200 202 200 197 196 191 193 204 216 227 227 216 216 230 252 63 90 107 114 90 71 68 70 79 105 110 89 113 114 80 116 116 94
127 101 83 44 34 43 43 56 88 67 11 249 261 274 115 246 290 302 348 315 272 262 277 273 224 192 184 187 190 188 188 191 195 195 193 193 195 197 198 196 196 196 196 197 196 193 194 197 198 197 197 196 195 195 197 200 207 212 216 217 219 219 205 194 197 199 196 196 193 185 184 189 194 198 192 176 167 156 126 106 101 103 100 91 79 75 74 72 73 73 71 74 70 63 78 87 93
90 77 80 84 349 16 28 353 46 86 257 256 259 292 89 145 268 275 273 296 287 242 242 257 210 173 176 184 185 185 186 190 193 192 191 193 194 196 198 199 199 200 203 201 194 189 192 196 198 199 199 197 195 197 200 206 211 215 219 221 222 221 206 196 196 194 189 190 188 181 177 177 177 171 160 147 139 130 115 104 101 99 91 84 78 76 75 72 68 65 63 59 55 54 57 62 67
84 82 75 93 1 8 7 311 3 147 233 247 259 289 109 200 247 280 309 318 307 266 215 242 210 167 167 175 180 181 183 187 192 192 193 195 197 199 201 202 202 202 203 198 192 192 195 198 201 202 200 198 198 200 203 207 212 216 219 220 222 221 208 198 194 185 180 181 180 174 164 161 162 158 149 141 136 131 120 114 109 103 100 94 85 80 77 78 73 67 64 59 55 52 50 52 49
123 126 114 122 99 69 275 269 296 251 247 258 261 242 223 277 272 297 314 305 331 40 67 81 108 154 158 165 172 175 179 186 192 195 196 198 201 203 204 205 203 202 201 197 195 197 200 203 204 201 201 202 205 207 206 207 213 217 220 221 224 221 207 198 188 178 173 171 167 160 151 149 149 147 142 138 136 131 125 122 118 114 112 106 96 89 84 82 79 74 71 67 65 62 54 50 45
176 166 130 140 151 143 208 222 190 225 245 267 279 252 151 215 274 296 295 303 61 66 70 79 80 104 136 148 160 166 172 181 188 194 197 200 202 203 204 203 199 204 206 201 201 204 205 208 203 197 202 209 214 213 208 209 214 219 222 224 227 221 206 196 185 176 173 165 161 159 155 151 148 146 144 139 134 128 123 119 118 117 110 104 100 94 87 83 79 76 74 72 72 73 70 64 58
258 153 107 137 186 149 130 180 174 176 156 303 283 245 198 217 291 307 303 3 60 71 75 76 74 80 99 112 128 144 159 174 186 194 196 198 200 199 201 200 196 210 217 209 209 210 210 213 207 203 207 209 211 210 205 208 217 223 227 226 224 217 204 195 185 180 177 168 163 165 162 157 154 151 148 143 137 132 127 122 120 119 115 110 106 100 92 86 82 80 78 76 74 76 79 77 70
224 151 160 208 174 122 105 140 86 81 108 261 249 153 300 344 326 324 353 27 38 61 78 82 83 82 77 78 95 111 124 143 161 179 187 196 206 205 207 210 206 215 223 219 217 217 217 220 220 220 211 200 202 207 205 210 220 225 227 222 214 207 201 196 190 186 182 174 171 173 171 168 165 160 155 150 145 142 138 133 127 123 122 120 118 114 105 93 87 84 81 79 78 81 84 84 80
122 195 205 184 91 92 102 108 21 43 132 267 312 148 170 131 195 319 354 33 33 50 79 93 100 101 92 86 95 104 102 97 95 106 160 187 205 210 213 220 218 219 223 220 218 222 224 224 229 232 218 201 201 212 210 211 218 222 222 215 208 204 200 200 198 195 192 185 181 182 182 180 176 171 168 162 159 157 151 151 153 149 140 132 132 131 121 110 103 97 89 79 78 84 90 94 93
122 191 188 107 98 116 92 127 128 102 182 275 330 289 191 183 218 284 288 213 168 83 83 84 93 108 117 123 122 118 116 110 113 147 172 168 181 207 217 223 221 218 219 218 220 225 227 227 233 240 233 218 215 221 217 212 215 219 217 212 210 208 203 202 204 203 203 197 193 193 191 188 184 182 180 174 172 171 169 175 184 196 210 202 180 162 146 148 167 179 186 185 122 127 115 113 114
14 28 22 39 127 155 168 145 147 152 165 223 314 355 245 227 213 209 224 225 195 143 113 89 79 90 111 121 116 111 115 124 138 152 157 153 166 198 208 212 215 212 211 213 217 222 225 228 233 240 244 241 233 227 220 213 211 215 215 213 214 211 204 203 207 209 210 205 201 201 200 198 197 197 196 192 191 190 192 201 205 212 226 235 236 229 218 215 224 233 234 245 251 243 246 235 171
18 28 12 358 32 120 143 86 83 131 139 174 177 62 270 254 209 191 203 211 191 153 127 100 92 95 105 113 113 114 120 129 135 131 122 126 142 161 170 178 185 185 188 193 196 202 211 219 227 236 244 246 240 229 220 214 211 213 215 216 216 212 204 200 204 209 214 211 207 206 205 206 213 223 237 242 247 252 251 255 254 251 252 253 254 255 257 257 256 256 256 262 268 264 260 258 245
115 92 40 118 134 123 121 105 315 103 125 162 155 173 265 261 219 205 193 181 173 151 137 128 122 122 124 123 126 134 137 137 137 123 111 116 129 144 154 151 149 154 163 167 165 176 198 214 222 232 240 241 237 225 215 213 213 213 216 220 221 214 206 202 202 206 214 216 212 210 209 210 216 229 242 252 267 274 269 271 272 272 275 276 274 272 270 277 287 288 283 280 284 285 279 272 261